Location: Newark
(25.6108°S, 54.5803°W)
Time: 08:54:48
(UTC+00:00)

Tiros 1 - Pass Details

Date: 03 November 2020
Orbit: 630 x 664 km, 48.4° (Epoch: 29 November)

Event Time Altitude Azimuth Distance (km) Brightness Sun altitude
Rises 01:10:35 0° 245° (WSW) 3,006 11.4 -38.2°
Enters shadow 01:13:28 10° 261° (W) 2,084 10.2 -38.6°
Reaches altitude 10° 01:13:29 10° 261° (W) 2,083 - -38.6°
Maximum altitude 01:16:57 20° 307° (NW) 1,515 - -39.1°
Drops below altitude 10° 01:20:24 10° 354° (N) 2,054 - -39.6°
Sets 01:23:14 0° 11° (N) 2,951 - -40.0°
